Regional Weather Roundup
Issued by NWS

Home | Current Version | Previous Version | Text Only | Print | Product List | Glossary Off
Versions: 1 2 3 4 5 6 7 8 9 10 11 12 13 14 15 16 17 18 19 20 21 22 23 24 25 26 27 28 29 30 31 32 33 34 35 36 37 38 39 40 41 42 43 44 45 46 47 48 49 50

000
ASUS43 KMKX 141911
RWRWI

WISCONSIN REGIONAL WEATHER ROUNDUP
NATIONAL WEATHER SERVICE MILWAUKEE/SULLIVAN WI
100 PM CST SUN FEB 14 2016

NOTE: "FAIR" INDICATES FEW OR NO CLOUDS BELOW 12,000 FEET WITH NO
SIGNIFICANT WEATHER AND/OR OBSTRUCTIONS TO VISIBILITY.

WIZ001-002-006>008-014>016-023>028-142000-
NORTHWEST WISCONSIN

CITY           SKY/WX    TMP DP  RH WIND       PRES   REMARKS
SUPERIOR ARPT  FLURRIES  16   8  70 S8        30.01F WCI   5
ASHLAND        CLOUDY    19   2  47 S9G23     30.03F WCI   8
HAYWARD        LGT SNOW  13   3  64 S15G21    30.00F WCI  -3
SIREN          CLOUDY    16   5  61 SE12      29.99F WCI   3
CUMBERLAND     CLOUDY    14   5  67 SE12      29.99F WCI   0
RICE LAKE      CLOUDY    16   7  65 SE12      30.03F WCI   3
CHETEK         FLURRIES  16   6  67 SE14G22   30.02F WCI   1
LADYSMITH      FLURRIES  17   6  62 S13G18    30.04F WCI   3
EAU CLAIRE     LGT SNOW  15   7  70 SE14      30.03F WCI   0
MENOMONIE      LGT SNOW  20   9  62 E12       30.04F WCI   8
NEW RICHMOND   LGT SNOW  18   9  68 S14       29.99F WCI   5
OSCEOLA        LGT SNOW  19  11  70 SE13      30.01F WCI   6
$$

WIZ003>005-009-010-017-018-142000-
NORTH CENTRAL WISCONSIN

CITY           SKY/WX    TMP DP  RH WIND       PRES   REMARKS
MANITOWISH WTR CLOUDY    16 -10  31 S16       30.01F WCI   0
ARBOR VITAE    CLOUDY    19  -9  27 S13G23    30.02F WCI   6
WOODRUFF       CLOUDY    19  -9  27 S13G23    30.02F WCI   6
RHINELANDER    CLOUDY    17  -1  45 S14G22    30.05F WCI   3
EAGLE RIVER    CLOUDY    17  -5  36 S16G22    30.04F WCI   2
LAND O LAKES   CLOUDY    19  -8  30 S15G22    30.04F WCI   4
PHILLIPS       CLOUDY    15  -2  46 S16G23    30.01F WCI  -1
TOMAHAWK       CLOUDY    18  -2  41 SE6       30.04F WCI  10
MEDFORD        CLOUDY    14  -2  47 SE10G18   30.02F WCI   2
MERRILL        CLOUDY    20  -3  36 S13       30.07F WCI   7
$$

WIZ029-030-035-036-043>047-142000-
CENTRAL WISCONSIN

CITY           SKY/WX    TMP DP  RH WIND       PRES   REMARKS
WAUSAU         CLOUDY    18  -4  37 S17       30.06F WCI   3
MOSINEE        CLOUDY    18  -8  32 SE17      30.09F WCI   2
MARSHFIELD     LGT SNOW  16   4  59 SE17      30.04F WCI   0
STEVENS POINT  CLOUDY    16  -5  39 SE12      30.10F WCI   3
WAUPACA        CLOUDY    23   7  52 SE15G22   30.15F WCI  10
WAUTOMA        CLOUDY    17   3  54 S12       30.14F WCI   4
WISC RAPIDS    LGT SNOW  15   3  59 SE13      30.11F WCI   1
CAMP DOUGLAS   LGT SNOW  16  12  86 SE12      30.07F FOG     WCI   3
$$

WIZ011>013-019>022-031-037>040-048>050-142000-
NORTHEAST WISCONSIN

CITY           SKY/WX    TMP DP  RH WIND       PRES   REMARKS
ANTIGO         SUNNY     16   5  62 SE14      30.08F WCI   2
SHAWANO        CLOUDY    26  10  51 S15G23    30.16F WCI  13
OCONTO         CLOUDY    17  10  72 SE6       30.20F WCI   9
STURGEON BAY   CLOUDY    19  16  86 S15G24    30.22F WCI   5
GREEN BAY      PTSUNNY   18  11  74 S8        30.19F WCI   8
MANITOWOC      LGT SNOW  21  14  74 S17G26    30.21F WCI   7
APPLETON       PTSUNNY   21  10  63 SE16      30.14F WCI   7
CLINTONVILLE   SUNNY     23   9  54 S13       30.15F WCI  11
OSHKOSH        CLOUDY    20  10  65 S20       30.15F WCI   4
$$

WIZ032>034-041-042-053>061-142000-
SOUTHWEST WISCONSIN

CITY           SKY/WX    TMP DP  RH WIND       PRES   REMARKS
LA CROSSE      CLOUDY    19  11  70 SE16      30.05F WCI   4
SPARTA         LGT SNOW  17  10  75 SE10      30.07F WCI   4
VIROQUA        CLOUDY    18  11  75 SE12G22   30.02F WCI   5
BOSCOBEL       LGT SNOW  18  10  71 VRB7G17   30.08F WCI   9
PRAIRIE DU CHI MIX PCPN  17  11  75 E12G21    30.05F WCI   5
PLATTEVILLE    CLOUDY    16  12  86 SE16      30.05F WCI   0
$$

WIZ056-057-062-063-064-067-068-142000-
SOUTH CENTRAL WISCONSIN

CITY           SKY/WX    TMP DP  RH WIND       PRES   REMARKS
REEDSBURG      LGT SNOW  16   9  76 SE13G18   30.09F WCI   2
BARABOO/DELLS  LGT SNOW  15   9  76 SE13      30.09F WCI   1
LONE ROCK      LGT SNOW  15   9  76 SE13      30.10F VSB 1   WCI   1
MINERAL POINT  LGT SNOW  18  12  79 SE16G28   30.04F VSB 1   WCI   3
MADISON        SNOW      14   9  80 SE15      30.13F VSB 1/2 WCI  -1
MIDDLETON      CLOUDY    16  11  80 SE13G20   30.12F VSB 3/4 WCI   3
WATERTOWN      LGT SNOW  17  11  78 SE10      30.14F WCI   4
MONROE         LGT SNOW  16  12  86 SE13G20   30.09F WCI   2
JANESVILLE     SNOW      16  12  86 SE15      30.15F VSB 1/2 WCI   1
$$

WIZ051-052-058>065-066-070>072-142000-
SOUTHEAST WISCONSIN

CITY           SKY/WX    TMP DP  RH WIND       PRES   REMARKS
MILWAUKEE      LGT SNOW  19  10  68 S14       30.20F WCI   6
WAUKESHA       LGT SNOW  16   9  73 SE15      30.18F FOG     WCI   1
MILWAUKEE/TIMM LGT SNOW  19   9  63 SE9G23    30.19F WCI   9
RACINE         FLURRIES  20  10  65 S16G26    30.22F WCI   6
BURLINGTON     LGT SNOW  14   9  79 SE8       30.18F VSB 1   WCI   3
KENOSHA        LGT SNOW  16  10  77 S12       30.20F VSB 3/4 WCI   3
FOND DU LAC    CLOUDY    20  11  68 S16       30.16F WCI   6
SHEBOYGAN      CLOUDY    20  12  71 SE10      30.20F WCI   9
WEST BEND      CLOUDY    19  10  68 SE6G21    30.17F WCI  11
JUNEAU         LGT SNOW  17  10  73 SE16      30.15F WCI   2
$$

LSZ147-162-142000-
LAKE SUPERIOR

STATION/POSITION TIME  TEMP    WIND        PRES    WAVE
                       AIR SEA DIR/SP/G            HT/PER
                 (UTC) (F)     (DEG/KT/KT) (MB)    (FT/S)
DEVILS ISLAND    1900   15     180/  5/  7 1018.9F
SAXON HARBOR     1820                      1017.6F
$$

LMZ867-665-643>646-142000-
LAKE MICHIGAN

STATION/POSITION TIME  TEMP    WIND        PRES    WAVE
                       AIR SEA DIR/SP/G            HT/PER
                 (UTC) (F)     (DEG/KT/KT) (MB)    (FT/S)
CHAMBERS ISLAND  1800   17     330/  3/  3 1024.4F
SISTER BAY       1819   16     350/  7/  7   N/A
ALGOMA LAKESHORE 1811          200/ 27/ 34   N/A
KEWAUNEE LAKESHO 1800   23     160/ 24/ 29 1022.9F
SHEBOYGAN LAKESH 1900   20     150/ 22/ 26 1024.2F
PORT WASHINGTON  1800   22     160/ 20     1024.4F
MILWAUKEE LAKESH 1810   20     150/ 21/ 23   N/A
KENOSHA   LAKESH 1900   18     170/ 21/ 25 1022.7F
$$

TC  - TEMPERATURE IN CELSIUS
VSB - VISIBILITY IN STATUTE MILES
WCI - WIND CHILL INDEX
HX  - HEAT INDEX




USA.gov is the U.S. government's official web portal to all federal, state and local government web resources and services.